| time (UTC) | temp F | wind direction | speed MPH | gust MPH | rain 1hr in | rain 24hr in | rain mn in | humidity % | barometer mb |
| 20260504050507 | 50 | 243 | 0.0 | 5.0 | 0.00 | 0.00 | 0.00 | 52 | 1014.8 |
| 20260504050020 | 50 | 260 | 1.0 | 5.0 | 0.00 | 0.00 | 0.00 | 51 | 1014.8 |
| 20260504045506 | 50 | 285 | 2.0 | 5.0 | 0.00 | 0.00 | 0.00 | 51 | 1014.7 |
| 20260504045010 | 50 | 274 | 2.0 | 5.0 | 0.00 | 0.00 | 0.00 | 50 | 1014.8 |
| 20260504044525 | 50 | 272 | 4.0 | 5.0 | 0.00 | 0.00 | 0.00 | 50 | 1014.9 |
| 20260504044009 | 51 | 271 | 3.0 | 6.0 | 0.00 | 0.00 | 0.00 | 49 | 1014.8 |
| 20260504043508 | 51 | 266 | 3.0 | 6.0 | 0.00 | 0.00 | 0.00 | 49 | 1014.8 |
| 20260504043033 | 51 | 238 | 2.0 | 7.0 | 0.00 | 0.00 | 0.00 | 48 | 1014.7 |
| 20260504042509 | 51 | 269 | 3.0 | 7.0 | 0.00 | 0.00 | 0.00 | 48 | 1014.7 |
| 20260504042004 | 51 | 290 | 4.0 | 7.0 | 0.00 | 0.00 | 0.00 | 47 | 1014.7 |
| 20260504041512 | 51 | 269 | 3.0 | 6.0 | 0.00 | 0.00 | 0.00 | 48 | 1014.7 |
| 20260504041003 | 52 | 263 | 3.0 | 5.0 | 0.00 | 0.00 | 0.00 | 48 | 1014.7 |
| 20260504040507 | 52 | 254 | 3.0 | 5.0 | 0.00 | 0.00 | 0.00 | 49 | 1014.8 |
| 20260504040018 | 52 | 266 | 2.0 | 5.0 | 0.00 | 0.00 | 0.00 | 49 | 1014.7 |
| 20260504035507 | 52 | 253 | 2.0 | 4.0 | 0.00 | 0.00 | 0.00 | 49 | 1014.8 |
| 20260504035007 | 52 | 269 | 2.0 | 7.0 | 0.00 | 0.00 | 0.00 | 47 | 1014.7 |
| 20260504034522 | 52 | 245 | 3.0 | 7.0 | 0.00 | 0.00 | 0.00 | 46 | 1014.6 |
| 20260504034005 | 52 | 273 | 2.0 | 6.0 | 0.00 | 0.00 | 0.00 | 46 | 1014.6 |
| 20260504033507 | 53 | 269 | 4.0 | 7.0 | 0.00 | 0.00 | 0.00 | 46 | 1014.5 |
| 20260504033003 | 53 | 257 | 3.0 | 7.0 | 0.00 | 0.00 | 0.00 | 45 | 1014.5 |
| 20260504032503 | 53 | 266 | 3.0 | 6.0 | 0.00 | 0.00 | 0.00 | 45 | 1014.4 |
| 20260504032003 | 53 | 295 | 3.0 | 6.0 | 0.00 | 0.00 | 0.00 | 45 | 1014.4 |
| 20260504031511 | 53 | 259 | 2.0 | 6.0 | 0.00 | 0.00 | 0.00 | 45 | 1014.4 |
| 20260504031002 | 53 | 262 | 2.0 | 7.0 | 0.00 | 0.00 | 0.00 | 45 | 1014.4 |
| 20260504030503 | 53 | 276 | 3.0 | 7.0 | 0.00 | 0.00 | 0.00 | 45 | 1014.3 |
| 20260504030016 | 53 | 227 | 3.0 | 6.0 | 0.00 | 0.00 | 0.00 | 46 | 1014.3 |
| 20260504025504 | 53 | 271 | 3.0 | 5.0 | 0.00 | 0.00 | 0.00 | 47 | 1014.3 |
| 20260504025009 | 53 | 256 | 3.0 | 5.0 | 0.00 | 0.00 | 0.00 | 46 | 1014.3 |
| 20260504024518 | 53 | 272 | 2.0 | 4.0 | 0.00 | 0.00 | 0.00 | 46 | 1014.3 |
| 20260504024005 | 53 | 264 | 1.0 | 4.0 | 0.00 | 0.00 | 0.00 | 46 | 1014.3 |
| 20260504023505 | 53 | 279 | 2.0 | 4.0 | 0.00 | 0.00 | 0.00 | 45 | 1014.4 |
| 20260504023021 | 54 | 272 | 1.0 | 3.0 | 0.00 | 0.00 | 0.00 | 46 | 1014.4 |
| 20260504022508 | 54 | 270 | 1.0 | 3.0 | 0.00 | 0.00 | 0.00 | 46 | 1014.3 |
| 20260504022011 | 54 | 271 | 1.0 | 3.0 | 0.00 | 0.00 | 0.00 | 45 | 1014.3 |
| 20260504021509 | 54 | 260 | 1.0 | 4.0 | 0.00 | 0.00 | 0.00 | 45 | 1014.3 |
| 20260504021003 | 54 | 257 | 2.0 | 4.0 | 0.00 | 0.00 | 0.00 | 44 | 1014.3 |
| 20260504020504 | 54 | 285 | 1.0 | 3.0 | 0.00 | 0.00 | 0.00 | 45 | 1014.4 |
| 20260504020012 | 55 | 265 | 1.0 | 4.0 | 0.00 | 0.00 | 0.00 | 44 | 1014.3 |
| 20260504015504 | 55 | 259 | 1.0 | 4.0 | 0.00 | 0.00 | 0.00 | 44 | 1014.4 |
| 20260504015005 | 55 | 264 | 1.0 | 5.0 | 0.00 | 0.00 | 0.00 | 43 | 1014.3 |
| 20260504014514 | 55 | 278 | 1.0 | 5.0 | 0.00 | 0.00 | 0.00 | 42 | 1014.3 |
| 20260504014005 | 55 | 269 | 2.0 | 5.0 | 0.00 | 0.00 | 0.00 | 41 | 1014.2 |
| 20260504013508 | 56 | 259 | 3.0 | 5.0 | 0.00 | 0.00 | 0.00 | 41 | 1014.2 |
| 20260504013025 | 56 | 257 | 3.0 | 5.0 | 0.00 | 0.00 | 0.00 | 41 | 1014.1 |
| 20260504012505 | 56 | 255 | 2.0 | 5.0 | 0.00 | 0.00 | 0.00 | 41 | 1014.2 |
| 20260504012006 | 56 | 261 | 2.0 | 5.0 | 0.00 | 0.00 | 0.00 | 40 | 1014.1 |
| 20260504011522 | 56 | 247 | 1.0 | 4.0 | 0.00 | 0.00 | 0.00 | 40 | 1014.0 |
| 20260504011007 | 56 | 264 | 3.0 | 5.0 | 0.00 | 0.00 | 0.00 | 39 | 1014.0 |
| 20260504010506 | 56 | 264 | 2.0 | 5.0 | 0.00 | 0.00 | 0.00 | 39 | 1014.0 |
| 20260504010008 | 56 | 276 | 1.0 | 4.0 | 0.00 | 0.00 | 0.00 | 39 | 1013.8 |
| 20260504005503 | 57 | 273 | 2.0 | 6.0 | 0.00 | 0.00 | 0.00 | 38 | 1013.8 |
| 20260504005006 | 57 | 282 | 2.0 | 6.0 | 0.00 | 0.00 | 0.00 | 38 | 1013.8 |
| 20260504004531 | 57 | 266 | 2.0 | 4.0 | 0.00 | 0.00 | 0.00 | 38 | 1013.8 |
| 20260504004006 | 57 | 259 | 3.0 | 5.0 | 0.00 | 0.00 | 0.00 | 37 | 1013.8 |
| 20260504003505 | 57 | 271 | 2.0 | 5.0 | 0.00 | 0.00 | 0.00 | 38 | 1013.7 |
| 20260504003018 | 57 | 259 | 2.0 | 4.0 | 0.00 | 0.00 | 0.00 | 37 | 1013.7 |
| 20260504002507 | 58 | 278 | 1.0 | 7.0 | 0.00 | 0.00 | 0.00 | 37 | 1013.6 |
| 20260504002006 | 58 | 252 | 1.0 | 7.0 | 0.00 | 0.00 | 0.00 | 36 | 1013.6 |
| 20260504001532 | 58 | 299 | 4.0 | 7.0 | 0.00 | 0.00 | 0.00 | 35 | 1013.6 |
| 20260504001009 | 58 | 278 | 3.0 | 7.0 | 0.00 | 0.00 | 0.00 | 36 | 1013.5 |
| 20260504000509 | 58 | 286 | 4.0 | 7.0 | 0.00 | 0.00 | 0.00 | 35 | 1013.5 |
| 20260504000028 | 59 | 292 | 3.0 | 7.0 | 0.00 | 0.00 | 0.00 | 36 | 1013.4 |
| 20260503235508 | 59 | 264 | 2.0 | 9.0 | 0.00 | 0.00 | 0.00 | 35 | 1013.3 |
| 20260503235008 | 59 | 338 | 3.0 | 12.0 | 0.00 | 0.00 | 0.00 | 35 | 1013.3 |
| 20260503234528 | 60 | 292 | 5.0 | 12.0 | 0.00 | 0.00 | 0.00 | 33 | 1013.2 |
| 20260503234006 | 60 | 288 | 5.0 | 11.0 | 0.00 | 0.00 | 0.00 | 33 | 1013.2 |
| 20260503233504 | 60 | 309 | 4.0 | 12.0 | 0.00 | 0.00 | 0.00 | 34 | 1013.2 |
| 20260503233014 | 60 | 304 | 3.0 | 12.0 | 0.00 | 0.00 | 0.00 | 33 | 1013.1 |
| 20260503232507 | 60 | 311 | 6.0 | 10.0 | 0.00 | 0.00 | 0.00 | 31 | 1013.1 |
| 20260503232008 | 60 | 256 | 3.0 | 11.0 | 0.00 | 0.00 | 0.00 | 32 | 1013.1 |
| 20260503231522 | 60 | 285 | 6.0 | 11.0 | 0.00 | 0.00 | 0.00 | 32 | 1013.1 |
| 20260503231009 | 60 | 289 | 4.0 | 11.0 | 0.00 | 0.00 | 0.00 | 32 | 1013.1 |
| 20260503230508 | 60 | 323 | 6.0 | 13.0 | 0.00 | 0.00 | 0.00 | 32 | 1013.1 |
| 20260503230026 | 60 | 251 | 7.0 | 13.0 | 0.00 | 0.00 | 0.00 | 32 | 1013.1 |
| 20260503225509 | 60 | 299 | 7.0 | 14.0 | 0.00 | 0.00 | 0.00 | 32 | 1013.1 |
| 20260503225006 | 60 | 285 | 8.0 | 16.0 | 0.00 | 0.00 | 0.00 | 31 | 1013.1 |
| 20260503224525 | 60 | 288 | 6.0 | 18.0 | 0.00 | 0.00 | 0.00 | 32 | 1013.1 |
| 20260503224008 | 60 | 271 | 8.0 | 18.0 | 0.00 | 0.00 | 0.00 | 32 | 1013.1 |
| 20260503223512 | 60 | 294 | 9.0 | 15.0 | 0.00 | 0.00 | 0.00 | 32 | 1013.1 |
| 20260503223028 | 60 | 283 | 7.0 | 18.0 | 0.00 | 0.00 | 0.00 | 31 | 1013.1 |
| 20260503222507 | 60 | 284 | 8.0 | 19.0 | 0.00 | 0.00 | 0.00 | 33 | 1013.0 |
| 20260503222007 | 60 | 295 | 11.0 | 19.0 | 0.00 | 0.00 | 0.00 | 32 | 1013.1 |
| 20260503221517 | 60 | 322 | 6.0 | 12.0 | 0.00 | 0.00 | 0.00 | 33 | 1013.0 |
| 20260503221002 | 60 | 273 | 6.0 | 17.0 | 0.00 | 0.00 | 0.00 | 32 | 1012.9 |
| 20260503220502 | 60 | 302 | 8.0 | 17.0 | 0.00 | 0.00 | 0.00 | 32 | 1013.0 |
| 20260503220008 | 60 | 254 | 8.0 | 14.0 | 0.00 | 0.00 | 0.00 | 32 | 1013.1 |
| 20260503215502 | 60 | 293 | 5.0 | 10.0 | 0.00 | 0.00 | 0.00 | 33 | 1013.1 |
| 20260503215003 | 60 | 289 | 5.0 | 14.0 | 0.00 | 0.00 | 0.00 | 32 | 1013.1 |
| 20260503214514 | 60 | 331 | 6.0 | 14.0 | 0.00 | 0.00 | 0.00 | 31 | 1013.2 |
| 20260503214003 | 60 | 281 | 7.0 | 15.0 | 0.00 | 0.00 | 0.00 | 32 | 1013.1 |
| 20260503213502 | 60 | 304 | 9.0 | 15.0 | 0.00 | 0.00 | 0.00 | 32 | 1013.2 |
| 20260503213021 | 60 | 290 | 6.0 | 15.0 | 0.00 | 0.00 | 0.00 | 31 | 1013.1 |
| 20260503212504 | 61 | 309 | 6.0 | 15.0 | 0.00 | 0.00 | 0.00 | 32 | 1013.1 |
| 20260503212006 | 60 | 283 | 8.0 | 15.0 | 0.00 | 0.00 | 0.00 | 33 | 1013.2 |
| 20260503211516 | 61 | 269 | 5.0 | 12.0 | 0.00 | 0.00 | 0.00 | 32 | 1013.1 |
| 20260503211003 | 60 | 312 | 4.0 | 12.0 | 0.00 | 0.00 | 0.00 | 32 | 1013.1 |
| 20260503210509 | 60 | 295 | 7.0 | 14.0 | 0.00 | 0.00 | 0.00 | 32 | 1013.2 |
| 20260503210021 | 60 | 296 | 8.0 | 20.0 | 0.00 | 0.00 | 0.00 | 32 | 1013.2 |
| 20260503205502 | 61 | 259 | 10.0 | 20.0 | 0.00 | 0.00 | 0.00 | 32 | 1013.1 |
| 20260503205005 | 60 | 300 | 5.0 | 17.0 | 0.00 | 0.00 | 0.00 | 33 | 1013.0 |
| 20260503204506 | 60 | 319 | 7.0 | 17.0 | 0.00 | 0.00 | 0.00 | 33 | 1013.1 |
| 20260503204003 | 60 | 296 | 6.0 | 12.0 | 0.00 | 0.00 | 0.00 | 32 | 1013.1 |
| 20260503203505 | 60 | 271 | 6.0 | 13.0 | 0.00 | 0.00 | 0.00 | 33 | 1013.2 |
| 20260503203008 | 60 | 285 | 6.0 | 18.0 | 0.00 | 0.00 | 0.00 | 32 | 1013.2 |
| 20260503202506 | 60 | 274 | 8.0 | 18.0 | 0.00 | 0.00 | 0.00 | 32 | 1013.2 |
| 20260503202006 | 60 | 295 | 8.0 | 17.0 | 0.00 | 0.00 | 0.00 | 32 | 1013.3 |
| 20260503201510 | 60 | 309 | 5.0 | 16.0 | 0.00 | 0.00 | 0.00 | 33 | 1013.3 |
| 20260503201007 | 60 | 283 | 8.0 | 16.0 | 0.00 | 0.00 | 0.00 | 32 | 1013.4 |
| 20260503200503 | 60 | 296 | 10.0 | 15.0 | 0.00 | 0.00 | 0.00 | 32 | 1013.5 |
| 20260503200018 | 60 | 345 | 6.0 | 12.0 | 0.00 | 0.00 | 0.00 | 33 | 1013.5 |
| 20260503195506 | 59 | 330 | 5.0 | 16.0 | 0.00 | 0.00 | 0.00 | 32 | 1013.5 |
| 20260503195006 | 59 | 323 | 7.0 | 16.0 | 0.00 | 0.00 | 0.00 | 32 | 1013.6 |
| 20260503194523 | 59 | 295 | 6.0 | 15.0 | 0.00 | 0.00 | 0.00 | 33 | 1013.6 |
| 20260503194002 | 59 | 295 | 6.0 | 16.0 | 0.00 | 0.00 | 0.00 | 33 | 1013.6 |
| 20260503193503 | 59 | 310 | 6.0 | 16.0 | 0.00 | 0.00 | 0.00 | 32 | 1013.7 |
| 20260503193008 | 59 | 354 | 4.0 | 19.0 | 0.00 | 0.00 | 0.00 | 32 | 1013.7 |
| 20260503192503 | 59 | 355 | 7.0 | 19.0 | 0.00 | 0.00 | 0.00 | 32 | 1013.7 |
| 20260503192003 | 59 | 295 | 9.0 | 18.0 | 0.00 | 0.00 | 0.00 | 33 | 1013.8 |
| 20260503191506 | 59 | 330 | 5.0 | 18.0 | 0.00 | 0.00 | 0.00 | 33 | 1013.9 |
| 20260503191003 | 58 | 339 | 7.0 | 22.0 | 0.00 | 0.00 | 0.00 | 32 | 1014.0 |
| 20260503190504 | 58 | 257 | 9.0 | 22.0 | 0.00 | 0.00 | 0.00 | 31 | 1014.1 |
| 20260503190017 | 58 | 308 | 11.0 | 16.0 | 0.00 | 0.00 | 0.00 | 32 | 1014.1 |
| 20260503185505 | 58 | 249 | 3.0 | 12.0 | 0.00 | 0.00 | 0.00 | 33 | 1014.1 |
| 20260503185008 | 58 | 301 | 6.0 | 12.0 | 0.00 | 0.00 | 0.00 | 32 | 1014.2 |
| 20260503184520 | 58 | 281 | 5.0 | 13.0 | 0.00 | 0.00 | 0.00 | 31 | 1014.2 |
| 20260503184009 | 57 | 15 | 7.0 | 13.0 | 0.00 | 0.00 | 0.00 | 33 | 1014.3 |
| 20260503183509 | 57 | 261 | 5.0 | 11.0 | 0.00 | 0.00 | 0.00 | 32 | 1014.4 |
| 20260503183022 | 58 | 300 | 4.0 | 13.0 | 0.00 | 0.00 | 0.00 | 31 | 1014.5 |
| 20260503182507 | 57 | 328 | 6.0 | 16.0 | 0.00 | 0.00 | 0.00 | 31 | 1014.6 |
| 20260503182004 | 58 | 334 | 4.0 | 16.0 | 0.00 | 0.00 | 0.00 | 33 | 1014.6 |
| 20260503181522 | 57 | 267 | 8.0 | 14.0 | 0.00 | 0.00 | 0.00 | 33 | 1014.6 |
| 20260503181003 | 57 | 295 | 8.0 | 14.0 | 0.00 | 0.00 | 0.00 | 32 | 1014.6 |
| 20260503180505 | 56 | 358 | 5.0 | 15.0 | 0.00 | 0.00 | 0.00 | 34 | 1014.6 |
| 20260503180024 | 56 | 300 | 5.0 | 16.0 | 0.00 | 0.00 | 0.00 | 34 | 1014.7 |
| 20260503175507 | 56 | 306 | 7.0 | 16.0 | 0.00 | 0.00 | 0.00 | 33 | 1014.8 |
| 20260503175004 | 56 | 303 | 7.0 | 14.0 | 0.00 | 0.00 | 0.00 | 34 | 1014.7 |
| 20260503174517 | 56 | 321 | 4.0 | 18.0 | 0.00 | 0.00 | 0.00 | 34 | 1014.7 |
| 20260503174011 | 55 | 335 | 4.0 | 18.0 | 0.00 | 0.00 | 0.00 | 33 | 1014.8 |
| 20260503173505 | 55 | 308 | 5.0 | 16.0 | 0.00 | 0.00 | 0.00 | 34 | 1014.9 |
| 20260503173022 | 55 | 321 | 7.0 | 16.0 | 0.00 | 0.00 | 0.00 | 34 | 1014.9 |
| 20260503172510 | 55 | 319 | 9.0 | 18.0 | 0.00 | 0.00 | 0.00 | 32 | 1014.9 |
| 20260503172010 | 55 | 326 | 9.0 | 18.0 | 0.00 | 0.00 | 0.00 | 34 | 1015.0 |
| 20260503171526 | 55 | 300 | 4.0 | 14.0 | 0.00 | 0.00 | 0.00 | 33 | 1015.0 |
| 20260503171008 | 55 | 42 | 7.0 | 14.0 | 0.00 | 0.00 | 0.00 | 33 | 1015.1 |
| 20260503170502 | 54 | 292 | 3.0 | 11.0 | 0.00 | 0.00 | 0.00 | 35 | 1015.1 |
| 20260503151009 | 50 | 296 | 9.0 | 17.0 | 0.00 | 0.00 | 0.00 | 36 | 1016.0 |
| 20260503150507 | 50 | 21 | 7.0 | 17.0 | 0.00 | 0.00 | 0.00 | 36 | 1016.0 |
| 20260503131005 | 46 | 310 | 7.0 | 15.0 | 0.00 | 0.00 | 0.00 | 46 | 1016.4 |
| 20260503130502 | 46 | 309 | 4.0 | 15.0 | 0.00 | 0.00 | 0.00 | 47 | 1016.4 |
| 20260503110507 | 42 | 39 | 6.0 | 12.0 | 0.00 | 0.00 | 0.00 | 57 | 1015.8 |
| 20260503090503 | 43 | 314 | 9.0 | 17.0 | 0.00 | 0.00 | 0.00 | 56 | 1014.3 |
| 20260503081521 | 44 | 354 | 7.0 | 12.0 | 0.00 | 0.00 | 0.00 | 55 | 1013.7 |
| 20260503081009 | 45 | 315 | 5.0 | 11.0 | 0.00 | 0.00 | 0.00 | 55 | 1013.6 |
| 20260503080507 | 45 | 333 | 4.0 | 10.0 | 0.00 | 0.00 | 0.00 | 55 | 1013.5 |